This is the latest recevied weather packets stored in our database for station/object VK4TOM-13. If no packets are shown the sender has not sent any weather packets the latest 10 day(s).
| Time | Temp. | Humidity | Pressure | Rain* | Wind** | Luminosity | Snow |
|---|---|---|---|---|---|---|---|
| 1788217973 | 22.22° C | 70% | 1027.5 hPa | 0 mm | - | - | - |
| 1788217372 | 21.67° C | 70% | 1027.5 hPa | 0 mm | - | - | - |
| 1788216771 | 21.11° C | 70% | 1027.4 hPa | 0 mm | - | - | - |
| 1788216170 | 20.56° C | 70% | 1027.5 hPa | 0 mm | - | - | - |
| 1788215569 | 20.56° C | 70% | 1027.5 hPa | 0 mm | - | - | - |
| 1788214968 | 20° C | 70% | 1027.4 hPa | 0 mm | - | - | - |
| 1788214367 | 18.89° C | 70% | 1027.3 hPa | 0 mm | - | - | - |
| 1788213765 | 18.33° C | 70% | 1027.2 hPa | 0 mm | - | - | - |
| 1788213585 | 18.33° C | 70% | 1027.4 hPa | 0 mm | - | - | - |
| 1788213395 | 17.78° C | 70% | 1027.3 hPa | 0 mm | - | - | - |
| 1788213101 | 17.78° C | 70% | 1027.3 hPa | 0 mm | - | - | - |
| 1788212607 | 17.22° C | 70% | 1027.2 hPa | 0 mm | - | - | - |
| 1788212006 | 16.67° C | 70% | 1027.3 hPa | 0 mm | - | - | - |
| 1788211405 | 16.67° C | 70% | 1027.2 hPa | 0 mm | - | - | - |
| 1788210804 | 16.11° C | 70% | 1027 hPa | 0 mm | - | - | - |
| 1788210203 | 15.56° C | 70% | 1027 hPa | 0 mm | - | - | - |
| 1788209602 | 15° C | 70% | 1026.9 hPa | 0 mm | - | - | - |
| 1788209001 | 13.89° C | 70% | 1026.8 hPa | 0 mm | - | - | - |
| 1788208400 | 13.33° C | 70% | 1026.7 hPa | 0 mm | - | - | - |
| 1788207799 | 13.33° C | 70% | 1026.6 hPa | 0 mm | - | - | - |
| 1788207198 | 13.33° C | 70% | 1026.5 hPa | 0 mm | - | - | - |
| 1788206597 | 13.89° C | 70% | 1026.3 hPa | 0 mm | - | - | - |
| 1788205996 | 13.89° C | 70% | 1026.3 hPa | 0 mm | - | - | - |
| 1788205394 | 13.89° C | 70% | 1026.3 hPa | 0 mm | - | - | - |
| 1788204793 | 14.44° C | 70% | 1026.2 hPa | 0 mm | - | - | - |
* Rain since midnight (hover to see other rain measurements)
** Current wind speed in m/s (hover to see current wind gust speed)